Weather History for Cape Girardeau, MO

Change the Weather History Date:

Monday, January 7, 2013

  Actual Average Record
Temperature  
Mean Temperature 32 °F 33 °F  
Max Temperature 42 °F 42 °F 67 °F (1965)
Min Temperature 21 °F 24 °F -1 °F (1968)
Degree Days  
Heating Degree Days 33 32  
Month to date heating degree days 243 224  
Since 1 July heating degree days 1867 1975  
Cooling Degree Days 0 0  
Month to date cooling degree days 0 0  
Year to date cooling degree days 0 0  
Moisture  
Dew Point 24 °F    
Average Humidity 75    
Maximum Humidity 92    
Minimum Humidity 57    
Precipitation  
Precipitation 0.00 in 0.12 in 0.90 in (1989)
Month to date precipitation T 0.83  
Year to date precipitation T 0.83  
Sea Level Pressure  
Sea Level Pressure 30.36 in    
Wind  
Wind Speed 3 mph (SE)    
Max Wind Speed 13 mph    
Max Gust Speed 15 mph    
Visibility 7 miles    
Events      
T = Trace of Precipitation, MM = Missing Value Source: NWS Daily Summary

Daily Weather History Graph

Daily Weather History Graph

Search for Another Location

Airport:

Trip Planner

Search our weather history database for the weather conditions in past years. The results will help you decide how hot, cold, wet, or windy it might be!

Date:

Astronomy

Jan. 07, 2013 Rise Set
Actual Time 7:12 AM CST 4:57 PM CST
Civil Twilight 6:43 AM CST 5:25 PM CST
Nautical Twilight 6:11 AM CST 5:58 PM CST
Astronomical Twilight 5:39 AM CST 6:29 PM CST
Moon 2:37 AM CST (1/7) 1:06 PM CST (1/7)
Length of Visible Light 10h 42m
Length of Day
9h 44m
Waning Crescent, 22% of the Moon is Illuminated
Jan 7
Waning Crescent
Jan 11
New
Jan 18
First Quarter
Jan 26
Full
Feb 3
Last Quarter

Hourly Weather History & Observations

Time (CST) Temp. Windchill Dew Point Humidity Pressure Visibility Wind Dir Wind Speed Gust Speed Precip Events Conditions
12:53 AM 24.1 °F 19.7 °F 21.0 °F 88% 30.42 in 7.0 mi ESE 3.5 mph - N/A   Clear
1:53 AM 24.1 °F - 21.9 °F 91% 30.43 in 6.0 mi Calm Calm - N/A   Clear
2:53 AM 23.0 °F - 19.9 °F 88% 30.44 in 6.0 mi Calm Calm - N/A   Clear
3:53 AM 21.9 °F - 19.0 °F 89% 30.43 in 6.0 mi Calm Calm - N/A   Clear
4:53 AM 23.0 °F - 19.9 °F 88% 30.44 in 4.0 mi Calm Calm - N/A   Clear
5:53 AM 21.9 °F - 18.0 °F 85% 30.45 in 6.0 mi Calm Calm - N/A   Clear
6:53 AM 21.9 °F - 19.0 °F 89% 30.45 in 5.0 mi Calm Calm - N/A   Clear
7:53 AM 21.9 °F - 19.9 °F 92% 30.46 in 3.0 mi Calm Calm - N/A   Clear
8:53 AM 28.0 °F - 25.0 °F 88% 30.48 in 4.0 mi Calm Calm - N/A   Clear
9:53 AM 30.9 °F 22.2 °F 26.1 °F 82% 30.48 in 5.0 mi SSE 10.4 mph - N/A   Haze
10:53 AM 34.0 °F 26.6 °F 27.0 °F 75% 30.45 in 6.0 mi SE 9.2 mph - N/A   Haze
11:53 AM 36.0 °F 29.0 °F 27.0 °F 70% 30.39 in 8.0 mi SSE 9.2 mph - N/A   Clear
12:53 PM 37.4 °F 30.8 °F 28.4 °F 70% 30.34 in 8.0 mi SSE 9.2 mph - N/A   Clear
1:53 PM 39.9 °F 35.8 °F 28.9 °F 65% 30.32 in 10.0 mi SSE 5.8 mph - N/A   Clear
2:53 PM 42.1 °F 37.7 °F 28.0 °F 58% 30.30 in 10.0 mi South 6.9 mph - N/A   Clear
3:53 PM 41.0 °F 38.0 °F 30.0 °F 65% 30.28 in 10.0 mi SSE 4.6 mph - N/A   Clear
4:53 PM 37.0 °F - 30.0 °F 76% 30.29 in 10.0 mi Calm Calm - N/A   Clear
5:53 PM 34.0 °F - 28.0 °F 79% 30.29 in 9.0 mi Calm Calm - N/A   Clear
6:53 PM 30.9 °F 26.2 °F 28.0 °F 89% 30.27 in 9.0 mi SE 4.6 mph - N/A   Clear
7:53 PM 28.0 °F - 25.0 °F 88% 30.27 in 6.0 mi Calm Calm - N/A   Clear
8:53 PM 27.0 °F 23.0 °F 24.1 °F 89% 30.26 in 6.0 mi East 3.5 mph - N/A   Clear
9:53 PM 27.0 °F 23.0 °F 24.1 °F 89% 30.26 in 5.0 mi SSE 3.5 mph - N/A   Clear
10:53 PM 28.0 °F - 23.0 °F 81% 30.24 in 5.0 mi Calm Calm - N/A   Haze
11:53 PM 27.0 °F 23.0 °F 25.0 °F 92% 30.23 in 5.0 mi East 3.5 mph - N/A   Clear